Shungnak AP, Shungnak, AK, AK

3:51 PM AKST on December 05, 2019 (GMT -0900)
Shungnak AP, Shungnak, AK

Weather History for PAGH - October, 2019

Change the Weather History Date:

Tuesday, October 29, 2019

  Actual Average (PAFM) Record (PAFM)
Temperature  
Mean Temperature 34 °F -  
Max Temperature 41 °F 16 °F 37 °F (1996)
Min Temperature 26 °F 8 °F -26 °F (1985)
Degree Days  
Heating Degree Days 32    
Moisture  
Dew Point 33 °F    
Average Humidity 96    
Maximum Humidity 100    
Minimum Humidity 87    
Precipitation  
Precipitation 0.15 in - - ()
Sea Level Pressure  
Sea Level Pressure 29.60 in    
Wind  
Wind Speed 11 mph (SW)    
Max Wind Speed 17 mph    
Max Gust Speed 22 mph    
Visibility 6 miles    
Events Rain , Snow    
Averages and records for this station are not official NWS values.
T = Trace of Precipitation, MM = Missing Value Source: NWS Daily Summary

Daily Weather History Graph

Daily Weather History Graph

Search for Another Location

Airport or City:

Astronomy

Oct. 29, 2019 Rise Set
Actual Time 10:19 AM AKDT 6:04 PM AKDT
Civil Twilight 9:19 AM AKDT 7:03 PM AKDT
Nautical Twilight 8:16 AM AKDT 8:06 PM AKDT
Astronomical Twilight 7:15 AM AKDT 9:07 PM AKDT
Moon 12:49 PM AKDT (10/29) 6:45 PM AKDT (10/29)
Length of Visible Light 9h 44m
Length of Day
7h 44m
Waxing Crescent, 4% of the Moon is Illuminated
Oct 29
Waxing Crescent
Nov 4
First Quarter
Nov 12
Full
Nov 19
Last Quarter
Nov 26
New

Hourly Weather History & Observations

Time (AKDT) Temp. Windchill Dew Point Humidity Pressure Visibility Wind Dir Wind Speed Gust Speed Precip Events Conditions
12:56 AM 35.1 °F 26.9 °F 34.0 °F 96% 29.63 in 10.0 mi ESE 11.5 mph - 0.01 in Rain Light Rain
1:56 AM 35.1 °F 25.5 °F 34.0 °F 96% 29.63 in 10.0 mi ESE 15.0 mph - 0.00 in Rain Light Rain
2:56 AM 35.1 °F 25.2 °F 34.0 °F 96% 29.63 in 10.0 mi ESE 16.1 mph - 0.00 in Rain Light Rain
3:56 AM 36.0 °F 28.0 °F 35.1 °F 97% 29.63 in 10.0 mi ESE 11.5 mph - 0.00 in   Overcast
4:56 AM 36.0 °F 28.5 °F 35.1 °F 97% 29.62 in 10.0 mi ESE 10.4 mph - 0.00 in Rain Light Rain
5:56 AM 36.0 °F 28.0 °F 36.0 °F 100% 29.61 in 10.0 mi East 11.5 mph - 0.04 in Rain Light Rain
6:12 AM 37.4 °F 30.3 °F 35.6 °F 93% 29.59 in 10.0 mi East 10.4 mph - 0.01 in Rain Rain
6:44 AM 37.4 °F 30.8 °F 35.6 °F 93% 29.59 in 10.0 mi ESE 9.2 mph - 0.02 in Rain Light Rain
6:56 AM 37.0 °F 30.4 °F 36.0 °F 96% 29.60 in 10.0 mi East 9.2 mph - 0.03 in Rain Light Rain
7:21 AM 37.4 °F 30.3 °F 35.6 °F 93% 29.58 in 10.0 mi East 10.4 mph - 0.00 in Rain Light Rain
7:56 AM 37.9 °F 31.5 °F 37.0 °F 97% 29.60 in 10.0 mi East 9.2 mph - 0.00 in Rain Light Rain
8:20 AM 37.4 °F 31.4 °F 37.4 °F 100% 29.58 in 10.0 mi ESE 8.1 mph - 0.00 in Rain Light Rain
8:56 AM 37.9 °F 31.5 °F 37.9 °F 100% 29.60 in 10.0 mi ESE 9.2 mph - 0.00 in   Overcast
9:56 AM 39.0 °F 33.4 °F 37.9 °F 96% 29.60 in 10.0 mi ESE 8.1 mph - 0.00 in Rain Light Rain
10:56 AM 37.9 °F 31.5 °F 37.0 °F 97% 29.59 in 10.0 mi East 9.2 mph - 0.00 in Rain Light Rain
11:56 AM 39.0 °F 31.0 °F 37.9 °F 96% 29.58 in 10.0 mi SE 13.8 mph 17.3 mph 0.00 in   Overcast
12:56 PM 39.9 °F 32.9 °F 37.9 °F 93% 29.59 in 10.0 mi SE 11.5 mph - 0.00 in Rain Light Rain
1:40 PM 39.2 °F 33.6 °F 37.4 °F 93% 29.57 in 10.0 mi ESE 8.1 mph - 0.00 in Rain Light Rain
1:56 PM 39.0 °F 32.8 °F 37.9 °F 96% 29.58 in 10.0 mi SE 9.2 mph - 0.00 in Rain Light Rain
2:56 PM 41.0 °F 34.7 °F 37.9 °F 89% 29.57 in 10.0 mi SE 10.4 mph - 0.00 in Rain Light Rain
3:26 PM 41.0 °F 35.2 °F 37.4 °F 87% 29.55 in 10.0 mi SE 9.2 mph - 0.00 in Rain Light Rain
3:56 PM 41.0 °F 35.2 °F 37.9 °F 89% 29.57 in 10.0 mi SE 9.2 mph - 0.00 in Rain Light Rain
4:10 PM 41.0 °F 37.1 °F 37.4 °F 87% 29.55 in 10.0 mi South 5.8 mph - 0.00 in Rain Light Rain
4:25 PM 39.2 °F 35.0 °F 37.4 °F 93% 29.55 in 10.0 mi Variable 5.8 mph - 0.00 in Rain Light Rain
4:37 PM 37.4 °F 31.4 °F 37.4 °F 100% 29.55 in 10.0 mi West 8.1 mph - 0.00 in Rain Light Rain
4:49 PM 35.6 °F 29.9 °F 33.8 °F 93% 29.55 in 4.0 mi West 6.9 mph - 0.00 in Rain Light Rain
4:56 PM 35.1 °F 28.6 °F 34.0 °F 96% 29.57 in 6.0 mi West 8.1 mph - 0.00 in Rain Light Rain
5:08 PM 33.8 °F 27.0 °F 33.8 °F 100% 29.56 in 10.0 mi West 8.1 mph - 0.01 in Rain Light Rain
5:44 PM 33.8 °F 29.6 °F 33.8 °F 100% 29.56 in 10.0 mi West 4.6 mph - 0.01 in Rain Light Rain
5:56 PM 33.1 °F 26.9 °F 32.0 °F 96% 29.58 in 5.0 mi WSW 6.9 mph - 0.02 in Snow Light Snow
6:08 PM 32.0 °F 27.5 °F 32.0 °F 100% 29.56 in 2.0 mi West 4.6 mph - 0.01 in Snow Light Snow
6:16 PM 32.0 °F 25.6 °F 32.0 °F 100% 29.56 in 3.0 mi West 6.9 mph - 0.01 in Snow Light Snow
6:35 PM 32.0 °F 25.6 °F 32.0 °F 100% 29.57 in 2.5 mi West 6.9 mph - 0.01 in Snow Light Snow
6:46 PM 32.0 °F 24.8 °F 30.2 °F 93% 29.57 in 3.0 mi West 8.1 mph - 0.02 in Snow Light Snow
6:53 PM 32.0 °F 22.5 °F 30.2 °F 93% 29.57 in 2.0 mi West 12.7 mph - 0.02 in Snow Light Snow
6:56 PM 32.0 °F 22.5 °F 30.9 °F 96% 29.59 in 2.0 mi West 12.7 mph - 0.03 in Snow Light Snow
6:58 PM 32.0 °F 23.0 °F 30.2 °F 93% 29.57 in 1.8 mi West 11.5 mph - 0.00 in Snow Light Snow
7:05 PM 32.0 °F 22.1 °F 30.2 °F 93% 29.57 in 1.8 mi West 13.8 mph - 0.00 in Snow Light Snow
7:35 PM 30.2 °F 19.8 °F 30.2 °F 100% 29.58 in 1.8 mi West 13.8 mph - 0.00 in Snow Light Snow
7:56 PM 30.9 °F 21.2 °F 30.0 °F 96% 29.61 in 1.2 mi West 12.7 mph - 0.00 in Snow Light Snow
8:09 PM 30.2 °F 18.5 °F 28.4 °F 93% 29.59 in 1.0 mi West 17.3 mph - 0.00 in Snow Light Snow
8:33 PM 28.4 °F 17.0 °F 28.4 °F 100% 29.61 in 1.0 mi West 15.0 mph - 0.01 in Snow Light Snow
8:50 PM 28.4 °F 18.0 °F 28.4 °F 100% 29.61 in 0.8 mi West 12.7 mph - 0.01 in Snow Light Snow
8:51 PM 28.9 °F 19.2 °F 28.0 °F 96% 29.63 in 0.8 mi West 11.5 mph - 0.01 in Snow Light Snow
9:11 PM 28.4 °F 18.5 °F 28.4 °F 100% 29.62 in 1.2 mi West 11.5 mph 17.3 mph 0.00 in Snow Light Snow
9:31 PM 28.4 °F 18.0 °F 26.6 °F 93% 29.63 in 1.0 mi West 12.7 mph 21.9 mph 0.00 in Snow Light Snow
9:56 PM 27.0 °F 15.6 °F 27.0 °F 100% 29.66 in 1.2 mi West 13.8 mph - 0.00 in Snow Light Snow
10:11 PM 26.6 °F 15.2 °F 26.6 °F 100% 29.64 in 1.5 mi West 13.8 mph 20.7 mph 0.01 in Snow Light Snow
10:40 PM 26.6 °F 15.2 °F 26.6 °F 100% 29.65 in 2.0 mi West 13.8 mph - 0.01 in Snow Light Snow
10:56 PM 27.0 °F 15.6 °F 26.1 °F 96% 29.68 in 2.5 mi West 13.8 mph - 0.01 in Snow Light Snow
11:05 PM 26.6 °F 16.2 °F 26.6 °F 100% 29.67 in 4.0 mi West 11.5 mph - 0.00 in Snow Light Snow
11:27 PM 26.6 °F 16.2 °F 26.6 °F 100% 29.67 in 7.0 mi West 11.5 mph - 0.00 in Snow Light Snow
11:56 PM 27.0 °F 17.3 °F 26.1 °F 96% 29.70 in 10.0 mi West 10.4 mph - 0.00 in   Overcast